Вернуться в каталог

STARLINK-31409

АктивенСвязьVLEO
NORAD 59299·PAYLOAD·🇺🇸 United States

Запущен Mar 24, 2024 с Cape Canaveral Space Force Station

Loading…

Ближайшие Пролёты (ближайшие 24 часа)

TLE

СвежийSource: CelesTrak SupGP

Эпоха: Sep 14, 2026, 22:37 UTC

1 59299C 24056D   26257.94284722  .00018590  00000+0  67339-3 0  2571
2 59299  43.0014 235.0111 0001165 251.7559 260.0079 15.27566986    18

Отслеживайте STARLINK-31409 в реальном времени с AllMySat

Download on the App Store